Location: M?digepalle
(16.1753°N, 80.3496°E)
Time: 08:35:16
(UTC+00:00)

ATLAS 2AS CENTAUR RB - Pass Details

Date: 29 October 2020
Orbit: 279 x 24232 km, 12.1° (Epoch: 28 November)

Event Time Altitude Azimuth Distance (km) Brightness Sun altitude
Rises 13:24:12 0° 247° (WSW) 1,998 5.7 -18.4°
Reaches altitude 10° 13:26:03 10° 230° (SW) 1,083 3.7 -18.8°
Enters shadow 13:27:17 22° 191° (SSW) 693 2.0 -19.1°
